Weather Roundup
Issued by NWS Chicago, IL

Home | Current Version | Previous Version | Text Only | Print | Product List | Glossary Off
Versions: 1 2 3 4 5 6 7 8 9 10 11 12 13 14 15 16 17 18 19 20 21 22 23 24 25 26 27 28 29 30 31 32 33 34 35 36 37 38 39 40 41 42 43 44 45 46 47 48 49 50

000
NZUS59 KLOT 221200
HRRLOT

CHICAGO AREA WEATHER ROUNDUP
NATIONAL WEATHER SERVICE CHICAGO/ROMEOVILLE IL
700 AM CDT FRI AUG 22 2014

NOTE: "FAIR" INDICATES FEW OR NO CLOUDS BELOW 12,000 FEET WITH NO
SIGNIFICANT WEATHER AND/OR OBSTRUCTIONS TO VISIBILITY.

* THESE STATIONS ARE NOT UNDER NWS QUALITY CONTROL. THEY ALSO MAY NOT
  REPORT WEATHER SUCH AS PRECIPITATION OR FOG.

ILZ005-006-012>014-019>023-221300-
NORTHEAST ILLINOIS

CITY           SKY/WX    TMP DP  RH WIND       PRES   REMARKS
OHARE          MOCLDY    74  70  87 SW3       29.92R
6HR MIN TEMP:  72; 6HR MAX TEMP:  75; 6HR PCP:  1.64;

MIDWAY         MOCLDY    75  73  93 S6        29.93R
6HR MIN TEMP:  74; 6HR MAX TEMP:  76; 6HR PCP:  3.17;

AURORA         MOCLDY    74  70  87 S8        29.93S
6HR MIN TEMP:  73; 6HR MAX TEMP:  74; 6HR PCP:  0.16;

WAUKEGAN       FOG       71  69  93 CALM      29.93R VSB 1/4
6HR MIN TEMP:  69; 6HR MAX TEMP:  71; 6HR PCP:  0.08;

DUPAGE AIRPORT MOCLDY    74  71  91 S8        29.93R
6HR MIN TEMP:  73; 6HR MAX TEMP:  75; 6HR PCP:  1.70;

WHEELING       MOCLDY    74  72  93 CALM      29.94R
6HR MIN TEMP:  73; 6HR MAX TEMP:  75; 6HR PCP:  0.62;

NORTHERLY IS     N/A     74  70  87 SW3         N/A
$$

WIZ051-052-058>065-066-070>072-221300-
SOUTHEAST WISCONSIN

CITY           SKY/WX    TMP DP  RH WIND       PRES   REMARKS
MILWAUKEE      FOG       71  69  93 CALM      29.93S VSB 1/4
6HR MIN TEMP:  70; 6HR MAX TEMP:  71;

KENOSHA*       FOG       70  70 100 SE3       29.94R VSB 1/4
RACINE*        FOG       70  68  93 CALM      29.94R VSB 1
WAUKESHA       FOG       68  68 100 CALM      29.94R VSB 1/4
$$

INZ001>003-010>013-019-020-221300-
NORTHWEST INDIANA

CITY           SKY/WX    TMP DP  RH WIND       PRES   REMARKS
GARY*          MOCLDY    73  72  94 S5        29.95R
MICHIGAN CITY* NOT AVBL
RENSSELAER*    NOT AVBL
VALPARAISO     CLOUDY    71  69  93 S3        29.96R
$$

LMZ740>746-221300-
SOUTHERN LAKE MICHIGAN

STATION/POSITION TIME  SKY/WX   TEMP WIND        PRES    VSBY
                                AIR  DIR/SP/G
                 (UTC)          (F)  (DEG/KT/KT) (MB)    (MI)
HARRISON CRIB    1100            73  190/  8/ 10   N/A
BURNHAM HARBOR   1200            74  270/  4/  9   N/A
CALUMET HARBOR   1100            72  230/  1/  4 1012.0R
BURNS HARBOR     NOT AVBL
MICHIGAN CITY    1100            72  230/  6/  7   N/A
$$

ABBREVIATIONS USED IN REMARKS
   TC - TEMPERATURE IN CELSIUS
  WCI - WIND CHILL INDEX
   HX - HEAT INDEX
  VSB - VISIBILITY
$$


USA.gov is the U.S. government's official web portal to all federal, state and local government web resources and services.